Location: Borowce
(50.8255°N, 19.6209°E)
Time: 17:30:41
(UTC+00:00)

NOSS 3-1 (C) - Pass Details

Date: 19 May 2025
Orbit: 625 x 1577 km, 63.4° (Epoch: 18 June)

Event Time Altitude Azimuth Distance (km) Brightness Sun altitude
Rises 20:18:15 0° 216° (SW) 2,973 5.8 -12.8°
Reaches altitude 10° 20:20:23 10° 214° (SW) 2,122 5.1 -13.0°
Maximum altitude 20:25:08 75° 130° (SE) 798 2.9 -13.4°
Drops below altitude 10° 20:30:58 10° 46° (NE) 2,594 5.9 -13.9°
Sets 20:33:48 0° 45° (NE) 3,693 6.7 -14.1°
